Location: Complexul Astronomic Baia Mare
(47.6577°N, 23.5639°E)
Time: 05:44:14
(UTC+03:00)

ISS - Pass Details

Date: 15 March 2017
Orbit: 399 x 409 km, 51.6° (Epoch: 30 March)

Event Time Altitude Azimuth Distance (km) Brightness Sun altitude
Exits shadow 05:58:48 - 295° (WNW) 1,682 -1.2 -7.6°
Reaches altitude 10° 05:59:19 10° 296° (WNW) 1,479 -1.5 -7.5°
Maximum altitude 06:02:35 57° 16° (NNE) 491 -3.3 -6.9°
Drops below altitude 10° 06:05:51 10° 97° (E) 1,477 0.7 -6.4°
Sets 06:07:58 0° 101° (E) 2,337 1.9 -6.0°
